TimeEDT,TemperatureF,Dew PointF,Humidity,Sea Level PressureIn,VisibilityMPH,Wind Direction,Wind SpeedMPH,Gust SpeedMPH,PrecipitationIn,Events,Conditions,WindDirDegrees,DateUTC
12:52 AM,71.1,66.9,87,29.92,6.0,East,3.5,-,N/A,,Partly Cloudy,80,2012-09-07 04:52:00
1:52 AM,73.0,66.9,81,29.92,8.0,SSE,3.5,-,N/A,,Partly Cloudy,160,2012-09-07 05:52:00
2:52 AM,70.0,66.9,90,29.91,5.0,East,3.5,-,N/A,,Partly Cloudy,100,2012-09-07 06:52:00
3:52 AM,68.0,66.0,93,29.89,5.0,South,5.8,-,N/A,,Clear,180,2012-09-07 07:52:00
4:52 AM,69.1,66.0,90,29.89,4.0,South,5.8,-,N/A,,Clear,180,2012-09-07 08:52:00
5:52 AM,68.0,66.0,93,29.90,4.0,South,3.5,-,N/A,,Partly Cloudy,190,2012-09-07 09:52:00
6:52 AM,66.9,64.9,93,29.91,4.0,South,3.5,-,N/A,,Partly Cloudy,190,2012-09-07 10:52:00
7:52 AM,68.0,66.9,96,29.92,6.0,South,5.8,-,N/A,,Clear,190,2012-09-07 11:52:00
8:52 AM,72.0,68.0,87,29.94,7.0,SSW,4.6,-,N/A,,Partly Cloudy,210,2012-09-07 12:52:00
9:52 AM,77.0,68.0,74,29.94,10.0,SSW,8.1,-,N/A,,Partly Cloudy,210,2012-09-07 13:52:00
10:52 AM,81.0,68.0,65,29.93,10.0,SW,8.1,-,N/A,,Scattered Clouds,230,2012-09-07 14:52:00
11:52 AM,84.0,69.1,61,29.91,10.0,Variable,6.9,-,N/A,,Scattered Clouds,0,2012-09-07 15:52:00
12:52 PM,86.0,70.0,59,29.88,10.0,South,11.5,18.4,N/A,,Mostly Cloudy,190,2012-09-07 16:52:00
1:52 PM,87.1,69.1,55,29.85,10.0,South,9.2,-,N/A,,Mostly Cloudy,190,2012-09-07 17:52:00
2:52 PM,88.0,68.0,51,29.84,10.0,SSW,9.2,-,N/A,,Mostly Cloudy,210,2012-09-07 18:52:00
3:52 PM,87.1,68.0,53,29.83,10.0,South,9.2,-,N/A,,Mostly Cloudy,180,2012-09-07 19:52:00
4:52 PM,87.1,68.0,53,29.80,10.0,SSW,8.1,-,N/A,,Mostly Cloudy,200,2012-09-07 20:52:00
5:52 PM,87.1,68.0,53,29.76,10.0,South,10.4,-,N/A,,Scattered Clouds,190,2012-09-07 21:52:00
6:52 PM,84.9,66.9,55,29.74,10.0,South,9.2,-,N/A,,Mostly Cloudy,190,2012-09-07 22:52:00
7:52 PM,80.1,68.0,67,29.71,10.0,South,8.1,-,N/A,,Mostly Cloudy,170,2012-09-07 23:52:00
8:52 PM,80.1,66.9,64,29.70,10.0,South,9.2,-,N/A,,Overcast,180,2012-09-08 00:52:00
9:52 PM,80.1,66.9,64,29.70,10.0,South,9.2,-,N/A,,Overcast,190,2012-09-08 01:52:00
10:52 PM,80.1,66.9,64,29.65,10.0,SSW,10.4,-,N/A,,Overcast,200,2012-09-08 02:52:00
11:52 PM,81.0,66.9,62,29.64,10.0,SSW,11.5,-,0.00,,Overcast,210,2012-09-08 03:52:00